O'Neill, NE

6:20 AM CST on February 21, 2018 (GMT -0600)
The O'Neill Municipal-Baker

Weather History for KONL - April, 2013

Change the Weather History Date:

Tuesday, April 9, 2013

  Actual Average Record
Temperature  
Mean Temperature 26 °F -  
Max Temperature 34 °F 58 °F 86 °F (1977)
Min Temperature 19 °F 30 °F 12 °F (1982)
Degree Days  
Heating Degree Days 38    
Moisture  
Dew Point 22 °F    
Average Humidity 93    
Maximum Humidity 99    
Minimum Humidity 90    
Precipitation  
Precipitation 0.74 in - - ()
Sea Level Pressure  
Sea Level Pressure 29.99 in    
Wind  
Wind Speed 14 mph (North)    
Max Wind Speed 32 mph    
Max Gust Speed 38 mph    
Visibility 3 miles    
Events Snow , Thunderstorm    
Averages and records for this station are not official NWS values.
T = Trace of Precipitation, MM = Missing Value Source: NWS Daily Summary

Daily Weather History Graph

Daily Weather History Graph

Search for Another Location

Airport or City:

Trip Planner

Search our weather history database for the weather conditions in past years. The results will help you decide how hot, cold, wet, or windy it might be!

Date:

Astronomy

Apr. 09, 2013 Rise Set
Actual Time 7:03 AM CDT 8:10 PM CDT
Civil Twilight 6:34 AM CDT 8:39 PM CDT
Nautical Twilight 5:59 AM CDT 9:13 PM CDT
Astronomical Twilight 5:23 AM CDT 9:49 PM CDT
Moon 6:27 AM CDT (4/9) 7:47 PM CDT (4/9)
Length of Visible Light 14h 04m
Length of Day
13h 07m
Waning Crescent, 1% of the Moon is Illuminated
Apr 9
Waning Crescent
Apr 10
New
Apr 18
First Quarter
Apr 25
Full
May 2
Last Quarter

Hourly Weather History & Observations

Time (CDT) Temp. Windchill Dew Point Humidity Pressure Visibility Wind Dir Wind Speed Gust Speed Precip Events Conditions
12:15 AM 34.2 °F 22.6 °F 33.4 °F 97% 29.86 in 1.2 mi NNE 20.7 mph 33.4 mph N/A   Overcast
12:35 AM 33.8 °F 21.6 °F 33.1 °F 97% 29.87 in 1.5 mi North 23.0 mph 34.5 mph 0.01 in Snow Light Snow
12:55 AM 33.6 °F 20.3 °F 32.9 °F 97% 29.85 in 2.0 mi North 27.6 mph 35.7 mph 0.05 in Snow Light Snow
1:15 AM 33.1 °F 19.6 °F 32.2 °F 96% 29.85 in 2.0 mi North 27.6 mph 34.5 mph 0.07 in Snow Light Snow
1:35 AM 32.9 °F 18.4 °F 32.0 °F 96% 29.81 in 1.5 mi North 32.2 mph 38.0 mph 0.18 in Snow Light Snow
1:55 AM 32.9 °F 20.4 °F 32.0 °F 96% 29.82 in 3.0 mi NNE 23.0 mph 38.0 mph 0.27 in Snow Light Snow
2:15 AM 32.9 °F 21.0 °F 32.0 °F 96% 29.84 in 5.0 mi NNE 20.7 mph 31.1 mph 0.03 in   Overcast
2:35 AM 32.5 °F 20.5 °F 32.0 °F 98% 29.81 in 2.5 mi North 20.7 mph - 0.08 in Snow Light Snow
2:55 AM 32.0 °F 20.8 °F 31.6 °F 99% 29.81 in 4.0 mi North 17.3 mph 24.2 mph 0.12 in   Overcast
3:35 AM 32.0 °F 21.6 °F 31.1 °F 96% 29.83 in 3.0 mi North 15.0 mph - 0.09 in Snow Light Snow
3:55 AM 32.0 °F 22.5 °F 31.1 °F 96% 29.85 in 2.5 mi North 12.7 mph 18.4 mph 0.14 in Snow Light Snow
4:15 AM 32.0 °F 24.2 °F 31.1 °F 96% 29.88 in - North 9.2 mph - 0.06 in Snow Light Snow
4:35 AM 31.8 °F 23.3 °F 30.6 °F 95% 29.88 in 1.8 mi North 10.4 mph - 0.15 in Snow Light Snow
4:55 AM - - - N/A% 29.87 in 1.8 mi North 8.1 mph - 0.16 in   Unknown
5:15 AM 31.1 °F 23.7 °F 29.8 °F 95% 29.88 in 1.2 mi North 8.1 mph - N/A Snow Light Snow
5:35 AM - - - N/A% 29.92 in 1.2 mi North 9.2 mph - N/A   Unknown
5:55 AM 29.8 °F 20.3 °F 28.4 °F 94% 29.83 in 2.0 mi NNE 11.5 mph - N/A Snow Light Snow
6:15 AM 28.8 °F 19.5 °F 27.3 °F 94% 29.84 in 3.0 mi NNE 10.4 mph - N/A   Overcast
6:35 AM 27.5 °F 18.6 °F 26.1 °F 94% 29.88 in 2.0 mi North 9.2 mph - N/A Snow Light Snow
6:55 AM 25.0 °F 15.5 °F 22.8 °F 91% 29.86 in 2.5 mi North 9.2 mph - N/A Snow Light Snow
7:15 AM 23.2 °F 13.3 °F 20.8 °F 91% 29.92 in 10.0 mi North 9.2 mph - N/A   Overcast
7:35 AM 22.5 °F 13.2 °F 20.3 °F 91% 29.96 in 10.0 mi NNW 8.1 mph - N/A   Overcast
7:55 AM 22.1 °F 12.0 °F 19.9 °F 91% 29.97 in 7.0 mi North 9.2 mph - N/A   Overcast
8:15 AM 21.9 °F 11.7 °F 19.8 °F 91% 29.99 in 10.0 mi North 9.2 mph - N/A   Overcast
8:35 AM 21.6 °F 9.9 °F 19.0 °F 90% 30.02 in 10.0 mi North 11.5 mph - N/A   Overcast
8:55 AM 21.7 °F 10.2 °F 19.4 °F 91% 30.02 in 10.0 mi North 11.5 mph - N/A   Overcast
9:15 AM 21.9 °F 11.0 °F 19.6 °F 91% 30.01 in 10.0 mi North 10.4 mph - N/A   Overcast
9:35 AM 21.9 °F 11.0 °F 19.4 °F 90% 30.02 in 4.0 mi North 10.4 mph - N/A   Overcast
9:55 AM 22.1 °F 12.0 °F 19.9 °F 91% 30.01 in 2.5 mi North 9.2 mph - N/A   Overcast
10:15 AM 22.1 °F 10.6 °F 20.3 °F 93% 30.00 in 2.5 mi North 11.5 mph - N/A   Overcast
10:35 AM 22.5 °F 11.1 °F 20.3 °F 91% 30.02 in 2.0 mi North 11.5 mph - N/A   Overcast
10:55 AM 22.3 °F 11.5 °F 20.3 °F 92% 30.03 in 2.5 mi North 10.4 mph - N/A   Overcast
11:15 AM 21.6 °F 10.6 °F 19.2 °F 91% 30.04 in 3.0 mi North 10.4 mph - N/A   Overcast
11:35 AM 21.6 °F 9.9 °F 19.4 °F 91% 30.06 in 3.0 mi North 11.5 mph - N/A   Overcast
11:55 AM 21.7 °F 10.8 °F 19.4 °F 91% 30.07 in 2.0 mi North 10.4 mph - N/A   Overcast
12:15 PM 21.2 °F 10.9 °F 19.2 °F 92% 30.10 in 1.8 mi North 9.2 mph - N/A   Overcast
12:35 PM 21.4 °F 11.9 °F 19.4 °F 92% 30.07 in 2.0 mi North 8.1 mph - N/A   Overcast
12:55 PM 21.7 °F 11.5 °F 19.4 °F 91% 30.07 in 2.0 mi North 9.2 mph - N/A   Overcast
1:15 PM 21.2 °F 10.1 °F 19.2 °F 92% 30.07 in 0.8 mi North 10.4 mph - N/A   Overcast
1:35 PM 21.2 °F 10.1 °F 18.9 °F 91% 30.05 in 0.8 mi North 10.4 mph - N/A Snow Light Snow
1:55 PM 21.2 °F 10.1 °F 18.9 °F 91% 30.04 in 0.8 mi North 10.4 mph - N/A Snow Light Snow
2:15 PM 20.8 °F 9.7 °F 18.5 °F 91% 30.04 in 1.2 mi North 10.4 mph 16.1 mph N/A   Overcast
2:35 PM 20.7 °F 10.2 °F 18.3 °F 91% 30.02 in 1.0 mi North 9.2 mph - N/A   Overcast
2:55 PM 20.1 °F 8.8 °F 17.8 °F 91% 30.02 in 1.2 mi North 10.4 mph - N/A   Overcast
3:15 PM 19.9 °F 10.1 °F 17.8 °F 91% 30.05 in 1.0 mi North 8.1 mph - N/A Snow Light Snow
3:35 PM 19.9 °F 8.6 °F 17.6 °F 91% 30.02 in 0.5 mi NNW 10.4 mph - N/A Snow , Thunderstorm Light Thunderstorms and Snow
3:55 PM 19.8 °F 9.1 °F 17.6 °F 91% 30.02 in 0.8 mi NNW 9.2 mph - N/A Snow , Thunderstorm Light Thunderstorms and Snow
4:15 PM 19.8 °F 8.3 °F 17.4 °F 91% 30.00 in 0.8 mi North 10.4 mph - N/A Snow , Thunderstorm Light Thunderstorms and Snow
4:35 PM 19.4 °F 7.9 °F 17.2 °F 91% 30.01 in 0.8 mi North 10.4 mph - N/A Snow Light Snow
4:55 PM 19.4 °F 9.5 °F 17.1 °F 91% 30.07 in 1.0 mi North 8.1 mph - N/A Snow , Thunderstorm Light Thunderstorms and Snow
5:15 PM 19.4 °F 9.5 °F 17.4 °F 92% 30.02 in 0.8 mi North 8.1 mph - N/A Snow , Thunderstorm Light Thunderstorms and Snow
5:35 PM 20.1 °F 9.5 °F 18.0 °F 91% 30.07 in 0.8 mi NNW 9.2 mph - N/A Snow , Thunderstorm Light Thunderstorms and Snow
5:55 PM 19.9 °F 10.1 °F 17.6 °F 91% 30.05 in 0.8 mi North 8.1 mph - N/A Snow , Thunderstorm Light Thunderstorms and Snow
6:15 PM 20.1 °F 11.3 °F 18.0 °F 91% 30.06 in 0.5 mi North 6.9 mph - N/A Snow Light Snow
6:35 PM 20.3 °F 11.5 °F 18.3 °F 92% 30.06 in 0.5 mi NNW 6.9 mph - N/A Snow , Thunderstorm Light Thunderstorms and Snow
6:55 PM 20.7 °F 11.0 °F 18.5 °F 91% 30.07 in 1.0 mi NNW 8.1 mph - N/A Snow Light Snow
7:15 PM 21.2 °F 11.7 °F 19.2 °F 92% 30.04 in 0.8 mi NNW 8.1 mph - N/A Snow , Thunderstorm Light Thunderstorms and Snow
7:35 PM 21.6 °F 13.0 °F 19.4 °F 91% 30.05 in 1.0 mi NNW 6.9 mph - N/A Snow Light Snow
7:55 PM 22.1 °F 12.8 °F 20.1 °F 92% 30.04 in 1.0 mi North 8.1 mph - N/A Snow Light Snow
8:15 PM 23.0 °F 13.9 °F 21.0 °F 92% 30.06 in 1.8 mi North 8.1 mph - N/A Snow Light Snow
8:35 PM 23.4 °F 16.2 °F 21.2 °F 91% 30.09 in 1.8 mi North 5.8 mph - N/A Snow , Thunderstorm Light Thunderstorms and Snow
8:55 PM 23.5 °F 16.4 °F 21.6 °F 92% 30.09 in 1.8 mi North 5.8 mph - N/A Snow Light Snow
9:15 PM 23.7 °F 15.6 °F 21.9 °F 93% 30.10 in 0.8 mi North 6.9 mph - N/A Snow Snow
9:35 PM 23.0 °F 15.8 °F 21.2 °F 93% 30.10 in 1.2 mi North 5.8 mph - N/A Snow Light Snow
9:55 PM 23.7 °F 15.6 °F 21.7 °F 92% 30.14 in 2.0 mi NNW 6.9 mph - N/A Snow Light Snow
10:15 PM 23.5 °F 13.7 °F 21.2 °F 91% 30.14 in 5.0 mi NNW 9.2 mph - N/A   Overcast
10:35 PM 23.0 °F 13.9 °F 21.0 °F 92% 30.09 in 10.0 mi North 8.1 mph - N/A   Overcast
10:55 PM 23.0 °F 14.7 °F 21.2 °F 93% 30.08 in 2.0 mi North 6.9 mph - N/A   Overcast
11:15 PM 23.2 °F 15.0 °F 21.2 °F 92% 30.10 in 2.5 mi North 6.9 mph - N/A   Overcast